Time,TemperatureF,DewpointF,PressureIn,WindDirection,WindDirectionDegrees,WindSpeedMPH,WindSpeedGustMPH,Humidity,HourlyPrecipIn,Conditions,Clouds,dailyrainin,SolarRadiationWatts/m^2,SoftwareType,DateUTC
2013-02-25 00:15:00,33.1,33.0,29.80,NNE,19,3.0,13.0,98,0.01,,,0.01,0,weatherlink.com 1.10,2013-02-25 05:15:00,
2013-02-25 00:30:00,33.0,33.0,29.81,North,5,5.0,9.0,98,0.02,,,0.02,0,weatherlink.com 1.10,2013-02-25 05:30:00,
2013-02-25 00:45:00,32.9,32.0,29.81,NE,37,1.0,7.0,98,0.02,,,0.02,0,weatherlink.com 1.10,2013-02-25 05:45:00,
2013-02-25 01:00:00,32.9,32.0,29.81,North,5,2.0,8.0,98,0.02,,,0.02,0,weatherlink.com 1.10,2013-02-25 06:00:00,
2013-02-25 01:15:00,33.0,33.0,29.82,NNW,342,1.0,10.0,98,0.01,,,0.02,0,weatherlink.com 1.10,2013-02-25 06:15:00,
2013-02-25 01:30:00,33.0,33.0,29.82,NNE,12,4.0,9.0,98,0.01,,,0.03,0,weatherlink.com 1.10,2013-02-25 06:30:00,
2013-02-25 01:45:00,33.1,33.0,29.82,North,351,3.0,7.0,98,0.01,,,0.03,0,weatherlink.com 1.10,2013-02-25 06:45:00,
2013-02-25 02:00:00,33.2,33.0,29.82,NNW,343,1.0,7.0,98,0.02,,,0.04,0,weatherlink.com 1.10,2013-02-25 07:00:00,
2013-02-25 02:15:00,33.3,33.0,29.82,North,355,2.0,8.0,98,0.02,,,0.04,0,weatherlink.com 1.10,2013-02-25 07:15:00,
2013-02-25 02:30:00,33.4,33.0,29.82,NNW,335,1.0,11.0,98,0.01,,,0.04,0,weatherlink.com 1.10,2013-02-25 07:30:00,
2013-02-25 02:45:00,33.4,33.0,29.83,NNE,13,4.0,7.0,98,0.01,,,0.04,0,weatherlink.com 1.10,2013-02-25 07:45:00,
2013-02-25 03:00:00,33.5,33.0,29.84,North,353,1.0,10.0,98,0.01,,,0.05,0,weatherlink.com 1.10,2013-02-25 08:00:00,
2013-02-25 03:15:00,33.5,33.0,29.84,NNE,16,2.0,10.0,98,0.01,,,0.05,0,weatherlink.com 1.10,2013-02-25 08:15:00,
2013-02-25 03:30:00,33.4,33.0,29.85,North,360,3.0,10.0,98,0.02,,,0.06,0,weatherlink.com 1.10,2013-02-25 08:30:00,
2013-02-25 03:45:00,33.2,33.0,29.86,North,355,1.0,9.0,98,0.02,,,0.06,0,weatherlink.com 1.10,2013-02-25 08:45:00,
2013-02-25 04:00:00,33.2,33.0,29.87,WNW,300,2.0,7.0,98,0.01,,,0.06,0,weatherlink.com 1.10,2013-02-25 09:00:00,
2013-02-25 04:15:00,33.2,33.0,29.88,North,349,7.0,9.0,98,0.01,,,0.06,0,weatherlink.com 1.10,2013-02-25 09:15:00,
2013-02-25 04:30:00,33.0,32.0,29.89,NNW,339,8.0,12.0,97,0.00,,,0.06,0,weatherlink.com 1.10,2013-02-25 09:30:00,
2013-02-25 04:45:00,32.9,32.0,29.89,NW,320,5.0,7.0,98,0.00,,,0.06,0,weatherlink.com 1.10,2013-02-25 09:45:00,
2013-02-25 05:00:00,32.7,32.0,29.90,WNW,294,5.0,11.0,98,0.00,,,0.06,0,weatherlink.com 1.10,2013-02-25 10:00:00,
2013-02-25 05:15:00,32.9,32.0,29.91,North,350,2.0,11.0,97,0.00,,,0.06,0,weatherlink.com 1.10,2013-02-25 10:15:00,
2013-02-25 05:30:00,32.9,32.0,29.91,NNW,336,6.0,12.0,96,0.00,,,0.06,0,weatherlink.com 1.10,2013-02-25 10:30:00,
2013-02-25 05:45:00,32.9,32.0,29.92,North,360,0.0,9.0,95,0.00,,,0.06,0,weatherlink.com 1.10,2013-02-25 10:45:00,
2013-02-25 06:00:00,33.0,32.0,29.93,North,359,4.0,10.0,95,0.00,,,0.06,0,weatherlink.com 1.10,2013-02-25 11:00:00,
2013-02-25 06:15:00,33.0,32.0,29.93,North,349,2.0,11.0,95,0.00,,,0.06,0,weatherlink.com 1.10,2013-02-25 11:15:00,
2013-02-25 06:30:00,32.8,32.0,29.94,North,351,7.0,9.0,95,0.00,,,0.06,5,weatherlink.com 1.10,2013-02-25 11:30:00,
2013-02-25 06:45:00,32.8,31.0,29.94,NNW,332,2.0,11.0,94,0.00,,,0.06,12,weatherlink.com 1.10,2013-02-25 11:45:00,
2013-02-25 07:01:00,32.9,31.0,29.95,North,356,1.0,7.0,94,0.00,,,0.06,12,weatherlink.com 1.10,2013-02-25 12:01:00,
2013-02-25 07:16:00,33.4,31.0,29.96,North,7,7.0,7.0,92,0.00,,,0.06,14,weatherlink.com 1.10,2013-02-25 12:16:00,
2013-02-25 07:31:00,33.6,32.0,29.97,NNW,333,5.0,7.0,92,0.00,,,0.06,30,weatherlink.com 1.10,2013-02-25 12:31:00,
2013-02-25 08:01:00,34.3,32.0,29.98,North,3,4.0,6.0,91,0.00,,,0.06,105,weatherlink.com 1.10,2013-02-25 13:01:00,
2013-02-25 08:16:00,35.1,32.0,29.98,NNW,343,1.0,8.0,89,0.01,,,0.07,181,weatherlink.com 1.10,2013-02-25 13:16:00,
2013-02-25 08:31:00,35.6,32.0,29.98,NNE,15,4.0,10.0,86,0.02,,,0.08,118,weatherlink.com 1.10,2013-02-25 13:31:00,
2013-02-25 08:46:00,36.4,31.0,29.98,NW,322,5.0,10.0,80,0.03,,,0.09,374,weatherlink.com 1.10,2013-02-25 13:46:00,
2013-02-25 09:01:00,36.7,30.0,29.99,NNW,348,3.0,12.0,77,0.04,,,0.10,418,weatherlink.com 1.10,2013-02-25 14:01:00,
2013-02-25 09:16:00,37.2,30.0,29.99,NNE,20,7.0,10.0,74,0.03,,,0.10,459,weatherlink.com 1.10,2013-02-25 14:16:00,
2013-02-25 09:31:00,37.7,30.0,30.00,WNW,291,2.0,8.0,74,0.02,,,0.10,497,weatherlink.com 1.10,2013-02-25 14:31:00,
2013-02-25 09:46:00,37.9,29.0,30.00,NNW,347,8.0,10.0,70,0.01,,,0.10,534,weatherlink.com 1.10,2013-02-25 14:46:00,
2013-02-25 10:01:00,38.4,29.0,30.01,North,8,5.0,10.0,68,0.00,,,0.10,566,weatherlink.com 1.10,2013-02-25 15:01:00,
2013-02-25 10:16:00,38.7,28.0,30.01,NNW,346,1.0,10.0,65,0.00,,,0.10,599,weatherlink.com 1.10,2013-02-25 15:16:00,
2013-02-25 10:31:00,39.2,29.0,30.01,West,279,3.0,8.0,68,0.00,,,0.10,622,weatherlink.com 1.10,2013-02-25 15:31:00,
2013-02-25 10:46:00,39.3,28.0,30.01,North,6,2.0,9.0,65,0.00,,,0.10,643,weatherlink.com 1.10,2013-02-25 15:46:00,
2013-02-25 11:02:00,39.8,30.0,30.02,West,272,6.0,9.0,67,0.00,,,0.10,661,weatherlink.com 1.10,2013-02-25 16:02:00,
2013-02-25 11:17:00,39.8,29.0,30.02,NW,316,2.0,8.0,66,0.00,,,0.10,677,weatherlink.com 1.10,2013-02-25 16:17:00,
2013-02-25 11:32:00,39.8,28.0,30.03,NNW,328,3.0,10.0,63,0.00,,,0.10,689,weatherlink.com 1.10,2013-02-25 16:32:00,
2013-02-25 11:47:00,39.5,28.0,30.02,North,8,4.0,7.0,64,0.00,,,0.10,694,weatherlink.com 1.10,2013-02-25 16:47:00,
2013-02-25 12:02:00,39.5,29.0,30.02,North,354,3.0,11.0,66,0.00,,,0.10,696,weatherlink.com 1.10,2013-02-25 17:02:00,
2013-02-25 12:17:00,39.7,28.0,30.03,NNE,24,4.0,10.0,64,0.00,,,0.10,696,weatherlink.com 1.10,2013-02-25 17:17:00,
2013-02-25 12:32:00,40.2,30.0,30.04,NW,312,3.0,8.0,66,0.00,,,0.10,693,weatherlink.com 1.10,2013-02-25 17:32:00,
2013-02-25 12:47:00,40.0,29.0,30.04,WNW,299,4.0,12.0,66,0.00,,,0.10,684,weatherlink.com 1.10,2013-02-25 17:47:00,
2013-02-25 13:02:00,40.1,29.0,30.04,North,355,2.0,9.0,64,0.00,,,0.10,670,weatherlink.com 1.10,2013-02-25 18:02:00,
2013-02-25 13:17:00,39.9,28.0,30.04,NNE,32,4.0,9.0,63,0.00,,,0.10,652,weatherlink.com 1.10,2013-02-25 18:17:00,
2013-02-25 13:32:00,40.4,29.0,30.05,ENE,60,3.0,7.0,64,0.00,,,0.10,631,weatherlink.com 1.10,2013-02-25 18:32:00,
2013-02-25 13:47:00,40.2,27.0,30.05,NNW,331,2.0,9.0,60,0.00,,,0.10,610,weatherlink.com 1.10,2013-02-25 18:47:00,
2013-02-25 14:02:00,39.6,26.0,30.05,North,360,3.0,7.0,59,0.00,,,0.10,580,weatherlink.com 1.10,2013-02-25 19:02:00,
2013-02-25 14:17:00,39.3,25.0,30.05,NNW,332,3.0,10.0,58,0.00,,,0.10,550,weatherlink.com 1.10,2013-02-25 19:17:00,
2013-02-25 14:47:00,38.7,25.0,30.06,NNE,23,3.0,10.0,59,0.00,,,0.10,327,weatherlink.com 1.10,2013-02-25 19:47:00,
2013-02-25 15:02:00,38.4,25.0,30.08,NW,317,2.0,8.0,59,0.00,,,0.10,260,weatherlink.com 1.10,2013-02-25 20:02:00,
2013-02-25 15:17:00,38.6,26.0,30.08,NNE,33,5.0,8.0,61,0.00,,,0.10,285,weatherlink.com 1.10,2013-02-25 20:17:00,
2013-02-25 15:32:00,38.1,27.0,30.09,ENE,70,3.0,9.0,64,0.00,,,0.10,128,weatherlink.com 1.10,2013-02-25 20:32:00,
2013-02-25 15:47:00,37.7,28.0,30.09,NNW,346,2.0,8.0,68,0.00,,,0.10,128,weatherlink.com 1.10,2013-02-25 20:47:00,
2013-02-25 16:02:00,37.3,28.0,30.10,North,359,4.0,8.0,70,0.00,,,0.10,72,weatherlink.com 1.10,2013-02-25 21:02:00,
2013-02-25 16:17:00,36.9,28.0,30.10,NNW,348,2.0,11.0,70,0.00,,,0.10,113,weatherlink.com 1.10,2013-02-25 21:17:00,
2013-02-25 16:32:00,36.9,29.0,30.11,North,355,0.0,7.0,73,0.00,,,0.10,102,weatherlink.com 1.10,2013-02-25 21:32:00,
2013-02-25 16:47:00,36.8,30.0,30.12,NNW,347,1.0,5.0,77,0.00,,,0.10,44,weatherlink.com 1.10,2013-02-25 21:47:00,
2013-02-25 17:02:00,36.5,30.0,30.13,NNW,331,1.0,6.0,77,0.00,,,0.10,35,weatherlink.com 1.10,2013-02-25 22:02:00,
2013-02-25 17:17:00,36.3,30.0,30.13,North,1,1.0,6.0,77,0.00,,,0.10,9,weatherlink.com 1.10,2013-02-25 22:17:00,
2013-02-25 17:32:00,35.9,30.0,30.13,North,349,0.0,4.0,79,0.00,,,0.10,0,weatherlink.com 1.10,2013-02-25 22:32:00,
2013-02-25 17:47:00,35.4,30.0,30.14,NW,324,0.0,3.0,81,0.00,,,0.10,0,weatherlink.com 1.10,2013-02-25 22:47:00,
2013-02-25 18:02:00,34.8,30.0,30.14,NNW,333,0.0,2.0,83,0.00,,,0.10,0,weatherlink.com 1.10,2013-02-25 23:02:00,
2013-02-25 18:17:00,34.3,30.0,30.14,NNW,333,0.0,0.0,84,0.00,,,0.10,0,weatherlink.com 1.10,2013-02-25 23:17:00,
2013-02-25 18:32:00,33.9,30.0,30.14,NNW,339,0.0,4.0,85,0.00,,,0.10,0,weatherlink.com 1.10,2013-02-25 23:32:00,
2013-02-25 18:47:00,33.5,30.0,30.14,North,8,0.0,1.0,86,0.00,,,0.10,0,weatherlink.com 1.10,2013-02-25 23:47:00,
2013-02-25 19:02:00,33.2,30.0,30.15,North,8,0.0,1.0,86,0.00,,,0.10,0,weatherlink.com 1.10,2013-02-26 00:02:00,
2013-02-25 19:17:00,32.6,29.0,30.15,North,8,0.0,0.0,87,0.00,,,0.10,0,weatherlink.com 1.10,2013-02-26 00:17:00,
2013-02-25 19:32:00,32.0,29.0,30.16,North,8,0.0,0.0,87,0.00,,,0.10,0,weatherlink.com 1.10,2013-02-26 00:32:00,
2013-02-25 19:47:00,31.4,28.0,30.17,North,8,0.0,0.0,88,0.00,,,0.10,0,weatherlink.com 1.10,2013-02-26 00:47:00,
2013-02-25 20:03:00,30.8,28.0,30.18,North,8,0.0,0.0,89,0.00,,,0.10,0,weatherlink.com 1.10,2013-02-26 01:03:00,
2013-02-25 20:18:00,30.2,27.0,30.19,North,8,0.0,0.0,89,0.00,,,0.10,0,weatherlink.com 1.10,2013-02-26 01:18:00,
2013-02-25 20:33:00,29.7,27.0,30.20,North,8,0.0,0.0,90,0.00,,,0.10,0,weatherlink.com 1.10,2013-02-26 01:33:00,
2013-02-25 20:48:00,29.4,27.0,30.20,North,8,0.0,0.0,91,0.00,,,0.10,0,weatherlink.com 1.10,2013-02-26 01:48:00,
2013-02-25 21:03:00,29.0,27.0,30.20,North,8,0.0,0.0,91,0.00,,,0.10,0,weatherlink.com 1.10,2013-02-26 02:03:00,
2013-02-25 21:18:00,28.5,26.0,30.19,North,8,0.0,0.0,91,0.00,,,0.10,0,weatherlink.com 1.10,2013-02-26 02:18:00,
2013-02-25 21:33:00,28.0,26.0,30.19,North,8,0.0,0.0,92,0.00,,,0.10,0,weatherlink.com 1.10,2013-02-26 02:33:00,
2013-02-25 21:48:00,27.6,26.0,30.19,North,8,0.0,0.0,92,0.00,,,0.10,0,weatherlink.com 1.10,2013-02-26 02:48:00,
2013-02-25 22:03:00,27.2,25.0,30.19,North,8,0.0,0.0,92,0.00,,,0.10,0,weatherlink.com 1.10,2013-02-26 03:03:00,
2013-02-25 22:18:00,27.1,25.0,30.19,North,8,0.0,0.0,93,0.00,,,0.10,0,weatherlink.com 1.10,2013-02-26 03:18:00,
2013-02-25 22:33:00,27.1,26.0,30.19,North,8,0.0,0.0,94,0.00,,,0.10,0,weatherlink.com 1.10,2013-02-26 03:33:00,
2013-02-25 22:48:00,27.1,25.0,30.19,North,8,0.0,0.0,93,0.00,,,0.10,0,weatherlink.com 1.10,2013-02-26 03:48:00,
2013-02-25 23:03:00,26.9,25.0,30.19,North,8,0.0,0.0,94,0.00,,,0.10,0,weatherlink.com 1.10,2013-02-26 04:03:00,
2013-02-25 23:18:00,27.0,26.0,30.20,North,8,0.0,0.0,94,0.00,,,0.10,0,weatherlink.com 1.10,2013-02-26 04:18:00,
2013-02-25 23:33:00,27.4,26.0,30.20,North,8,0.0,0.0,95,0.00,,,0.10,0,weatherlink.com 1.10,2013-02-26 04:33:00,
2013-02-25 23:48:00,27.9,27.0,30.21,North,8,0.0,0.0,95,0.00,,,0.10,0,weatherlink.com 1.10,2013-02-26 04:48:00,